STARLINK-37921

Last updated on Sun Aug 09 2026 00:02:04 GMT+0000 (Coordinated Universal Time)

1 69969U 26157AC 26220.58335648 -.00008402 00000+0 -14314-3 0 9995 2 69969 53.1597 174.7195 0001197 90.6463 90.7131 15.49313259 6099
UTC large
Height (km)
Speed (km/s)
/
Latitude / Longitude
Inclination (degrees)
Orbital Period (minutes)
Azimuth
Elevation
Range (km)
Doppler Factor

Next 0 passes for location: London (51.5072 / 0.1276)

No passes found over London.
STARLINK-37921